Regional Weather Roundup
Issued by NWS Charleston, SC

Current Version | Previous Version | Graphics & Text | Print | Product List | Glossary On
Versions: 1 2 3 4 5 6 7 8 9 10 11 12 13 14 15 16 17 18 19 20 21 22 23 24 25 26 27 28 29 30 31 32 33 34 35 36 37 38 39 40 41 42 43 44 45 46 47 48 49 50
000 ASUS42 KCHS 271611 RWRCHS REGIONAL WEATHER ROUNDUP NATIONAL WEATHER SERVICE CHARLESTON SC 1100 AM EST FRI FEB 27 2015 NOTE: "FAIR" INDICATES FEW OR NO CLOUDS BELOW 12,000 FEET WITH NO SIGNIFICANT WEATHER AND/OR OBSTRUCTIONS TO VISIBILITY. NOT ALL STATIONS ARE QUALITY CONTROLLED BY THE NATIONAL WEATHER SERVICE. USE DATA WITH CAUTION...ESPECIALLY DEWPOINT OBSERVATIONS. SCZ027-030-031-034>040-042>050-271700- ...SOUTHEAST SOUTH CAROLINA... CITY SKY/WX TMP DP RH WIND PRES REMARKS N CHARLESTON PTSUNNY 46 33 60 NE9 30.39R WATERFRONT PRK N/A 43 N/A N/A N8 N/A MOUNT PLEASANT FAIR 46 34 61 N5 30.39R PINOPOLIS N/A 43 36 75 VRB3 30.31R MONCKS CORNER FAIR 46 34 61 N3 30.39R SUMMERVILLE FAIR 46 36 66 N5 30.40R BEAUFORT MCAS NOT AVBL BEAUFORT ARPT FAIR 45 36 70 NE9 30.39R HILTON HEAD IS PTSUNNY N/A N/A N/A N8 30.40R WALTERBORO PTSUNNY 46 37 71 E6 30.39R ALLENDALE FAIR 46 36 66 NE5 30.38R ...SOUTHERN MIDLANDS AND PEE DEE... CITY SKY/WX TMP DP RH WIND PRES REMARKS GEORGETOWN NOT AVBL KINGSTREE NOT AVBL ORANGEBURG MOSUNNY 46 32 58 NE7 30.38S BARNWELL FAIR 46 36 66 CALM 30.39R AIKEN FAIR 46 36 66 E3 30.39S MANNING FAIR 46 32 57 NE5 30.39R COLUMBIA MOSUNNY 47 35 63 CALM 30.38S SUMTER SUNNY 45 32 61 NE7 30.37R FLORENCE MOSUNNY 46 32 58 E8 30.39R MYRTLE BEACH SUNNY 45 34 65 NE9 30.40R N MYRTLE BEACH SUNNY 45 32 60 NE9 30.37R $$ GAZ063-065-086>088-099>101-113>116-118-119-134>141-150-271700- ...SOUTHEAST GEORGIA... CITY SKY/WX TMP DP RH WIND PRES REMARKS SAVANNAH ARPT CLOUDY 48 32 53 NE9 30.38R HUNTER AAF CLOUDY 46 32 57 NE7 30.36R FORT STEWART CLOUDY 46 35 63 E8 30.36R STATESBORO CLOUDY 49 36 61 E7 30.38S SYLVANIA CLOUDY 47 38 71 E6 30.39R CLAXTON FAIR 46 36 66 NE9 30.38R ...CSRA...CENTRAL AND FAR SOUTHEAST GEORGIA... CITY SKY/WX TMP DP RH WIND PRES REMARKS THOMSON PTSUNNY 51 43 75 CALM 30.41R AUGUSTA-BUSH SUNNY 48 36 63 CALM 30.38S AUGUSTA-DANIEL MOSUNNY 48 35 60 CALM 30.37S SWAINSBORO PTSUNNY 50 32 50 E3 30.38S VIDALIA CLOUDY 48 41 76 NE3 30.38R EASTMAN CLOUDY 46 38 74 N3 30.41R HAZLEHURST FAIR 47 40 76 N6 30.37R ALMA CLOUDY 48 39 71 N6 30.38R WAYCROSS CLOUDY 51 41 69 E8G16 30.37R JESUP FAIR 50 37 62 NE7 30.37S BAXLEY FAIR 48 37 66 E7 30.37R BRUNSWICK CLOUDY 46 36 66 NE9 30.37S SAINT SIMONS CLOUDY 47 37 68 NE13 30.36R $$ SCZ027-028-034-036>038-045-046-048>050-GAZ119-141-271700- ...LAKE AND SUPPLEMENTAL COASTAL OBSERVATIONS... STATION/POSITION TIME TEMP WIND PRES WAVE SWELL AIR SEA DIR/SP/G HT/PER HT/PER/DIR (UTC) (F) (DEG/KT/KT) (MB) (FT/S) (FT/S/D) UPR LAKE MARION NOT AVBL WINYAH BAY NOT AVBL LAKE MURRAY 1500 42 160/ 2/ 4 1028.1R ACE BASIN NERRS NOT AVBL FORT PULASKI 1500 42 49 20/ 7/ 8 1028.5R SAPELO ISLAND 1500 45 20/ 9 1028.0R $$ ANZ835-935-AMZ111-154-330-350-352-354-370-450-454-472-271700- ...C-MAN AND BUOY OBSERVATIONS... STATION/POSITION TIME TEMP WIND PRES WAVE SWELL AIR SEA DIR/SP/G HT/PER HT/PER/DIR (UTC) (F) (DEG/KT/KT) (MB) (FT/S) (FT/S/D) BUOY 41004 1550 47 66 30/ 16/ 21 1027.4R 5/10 3/10 BUOY 41008 1550 46 52 30/ 16/ 19 1027.5R 4/ 5 2/ 90/11 FOLLY BEACH CMAN 1600 42 30/ 11/ 12 1029.3R CAPERS NEARSHORE NOT AVBL FRIPP NEARSHORE 1500 42 40/ 12/ 14 1027.0R STATION/POSITION TIME TEMP WIND PRES WAVE SWELL AIR SEA DIR/SP/G HT/PER HT/PER/DIR (UTC) (F) (DEG/KT/KT) (MB) (FT/S) (FT/S/D) 5E ST. MARYS GA 1521 53 N/A 4/ 5 FRYING PAN BUOY 1550 44 60 40/ 14/ 19 1027.6R 5/ 9 3/110/ 9 BUOY 41025 NOT AVBL CAPE LOOKOUT NC 1600 40 10/ 13/ 16 1027.5R BUOY 41002 1550 63 70 350/ 10/ 16 1023.3R 9/11 8/ 10/11 BUOY 41010 1520 68 73 40/ 14/ 17 1021.7R ST AUGUSTINE FL 1600 50 360/ 24/ 27 1026.4R $$

USA.gov is the U.S. government's official web portal to all federal, state and local government web resources and services.